Location: Newark
(52.3735°N, 16.9806°E)
Time: 03:46:32
(UTC+00:00)

LilacSat-2 - Pass Details

Date: 28 November 2021
Orbit: 511 x 532 km, 97.5° (Epoch: 16 January)

Event Time Altitude Azimuth Distance (km) Brightness Sun altitude
Rises 04:47:24 0° 15° (NNE) 2,680 ? -15.7°
Reaches altitude 10° 04:49:31 10° 17° (NNE) 1,788 ? -15.3°
Maximum altitude 04:53:22 73° 102° (ESE) 560 ? -14.8°
Drops below altitude 10° 04:57:13 10° 189° (S) 1,781 ? -14.2°
Sets 04:59:20 0° 191° (S) 2,668 ? -13.9°
